STARLINK-2589, 48371

Orbit data source: Space-Track

STARLINK-2589, 48371 is a payload satellite owned by SpaceX/Seattle (US) in LEO that was launched on Tue, 04 May 2021 UTC via an FALCON 9 launch vehicle from the Air Force Eastern Test Range (AFETR). Payload-class satellites include a variety of spacecraft equipped with specific instruments for various scientific and technological missions. These include communications satellites like Starlink; space stations such as the ISS; scientific satellites like the Hubble; Earth observation satellites from companies like Planet Labs, Umbra, and HawkEye 360; GPS; miniature CubeSats for education and research; and military/defense satellites.

Loading next visibility...
Identifier
48371, 2021-038U
Orbit
LEO
Country
Flag of USUS
Related business
Manufacturer
SpaceX/Seattle
Mission
Operational Commercial Communications
Bus & Motor
STARLINK, Unknown motor
Mass
260 kg wet, ~248 kg dry
Launch date (UTC)
2021-05-04 (5 years ago)
Launch vehicle
FALCON 9
Launch site
Air Force Eastern Test Range (AFETR)
Object type
Payload
Rocket body
Debris
Shape & HBR
Box + 1 Pan, 10.1 m
Radar Cross Section
13.562 m², Large (>1 m²)

Expand to show TLE details & history
Last TLE update: 2 days ago

TLE from 2 days ago
0 STARLINK-2589
1 48371U 21038U   26171.45043505  .00000234  00000-0  19312-4 0  9999
2 48371  53.1576 229.8349 0001160  86.1197 273.9937 15.31702947282965
Epoch: 2026-06-20T10:48Z
TLE epoch observation values (Epoch: 2026-06-20T10:48:37.588Z)
Latitude
-0.00001°
Longitude
159.01339°
Altitude
471.576 km
Speed
7.632 km/s
True Right ascension
15h 19m 20s
True Declination
0° 00' 00"
Sunlit
Object was in full shadow at epoch
Visualization orbit readout
Latitude
Unknown
Longitude
Unknown
Altitude
Unknown
Speed
Unknown
Apparent Right ascension
Unknown
Apparent Declination
Unknown
Sunlit
N/A
Visualization observer readout
Local Sidereal Time
21:28:23
Azimuth
Unknown
Elevation
Unknown
Doppler factor
Unknown
Orbital elements
Apogee altitude
471.783 km
Perigee altitude
470.194 km
Semi-major axis
6,849.125 km
Eccentricity
0.00012
Inclination
53.1576°
RAAN
229.8349°
Arg. of periapsis
86.1197°
True anomaly
273.98044°
Mean anomaly
273.9937°
Eccentric anomaly
273.98707°
Mean motion
3.82905 °/min
Orbital period
94.02 mins
BSTAR
0.000019312
Loading maneuver chart data...
Computing Atmospheric mass density...

Documentation

Showing up to 5 results
|